COSMOS 627

导读

**COSMOS 627卫星**,独联体(CIS)发射,属于苏联“宇宙”系列卫星。1973年12月29日发射升空,是冷战时期苏联太空军事利用的产物。“宇宙”系列多承担侦察、空间技术试验等任务,这类卫星为苏联获取战略情报、积累航天技术发挥了作用,体现了冷战背景下美苏空间军备竞赛特点,任务结束后已再入大气层销毁。

基本信息
目录编号:
7008
目录名称:
COSMOS 627
国际标识:
1973-109A
轨道中心:
EARTH
卫星名称:
COSMOS 627
卫星全名:
--
卫星状态:
在轨 (已飞行19161 天)
发射日期:
1973-12-29 UTC
国别 :
俄罗斯(独联体) (CIS)
星等 :
--
轨道信息
数据来源 国际轨道数据 AOE轨道数据
星历时间 2026-06-15T07:23:13+0800
7小时前
查看轨道信息
2026-06-13T07:00:00+0800
2天前
查看轨道信息
半长轴 7366.678km 7366.678km
偏心率 0.0031767 0.0031832
轨道倾角 82.953° 82.952°
近地点辐角 345.454° 351.021°
升交点赤经 123.324° 124.810°
平近点角 81.885° 196.069°
近地点 965.139km 965.091km
远地点 1011.943km 1011.991km
周期 104.874分钟 104.874分钟
每日圈数 13.730783 13.730782
详细信息
使用方式:
暂无
2D轨道图
3D轨道图
轨道高度分析图
轨道倾角分析图
轨道综合分析图
查看轨道综合分析图